Flag for U.S.A. Weather past 2 weeks in Des Moines, Iowa, U.S.A.

Now
67 °F

Clear.


Feels Like: 67 °F
Forecast: 61 / 82 °F
Wind: 3 mph from South

Location: Des Moines International Airport

Current Time: Sep 3, 2014 at 12:50:34 AM

Latest Report: Sep 2, 2014 at 11:54 PM


Visibility: 10 mi

Pressure: 29.94 "Hg

Humidity: 81%

Dew point: 61 °F

Location of Des MoinesLocation

Historic Weather in Des Moines — Graph

°F

Des Moines temperature yesterday

Maximum temperature yesterday: 80 °F (at 3:54 PM)
Minimum temperature yesterday: 62 °F (at 5:54 AM)
Average temperature yesterday: 71 °F

Past Weeks' High & Low Weather Summary

 TemperatureHumidityPressure
High92 °F (Aug 24, 1:54 PM)97% (Aug 28, 8:54 AM)30.16 "Hg (Aug 28, 8:54 AM)
Low62 °F (Sep 2, 5:54 AM)46% (Aug 19, 2:54 PM)29.63 "Hg (Sep 1, 12:57 AM)
Average76 °F76%29.88 "Hg
* Reported Aug 18 11:54 PM — Sep 2 11:54 PM, Des Moines, Weather by CustomWeather, © 2014

Note: Actual official high and low records may vary slightly from our data, if they occured in-between our weather recording intervals... More about our weather records

Advertising

Des Moines weather history for previous 24 hours

 ConditionsComfort  
Time TempWeatherWind HumidityBarometerVisibility
11:54 PM
Sep 2
67 °FClear.3 mph81%29.94 "Hg10 mi
10:54 PM67 °FClear.6 mph81%29.94 "Hg10 mi
9:54 PM71 °FClear.3 mph71%29.93 "Hg10 mi
8:54 PM73 °FClear.No wind64%29.93 "Hg10 mi
7:54 PM76 °FPassing clouds.No wind52%29.91 "Hg10 mi
6:54 PM78 °FPassing clouds.5 mph52%29.90 "Hg10 mi
5:54 PM79 °FPassing clouds.8 mph50%29.91 "Hg10 mi
4:54 PM80 °FPassing clouds.7 mph47%29.92 "Hg10 mi
3:54 PM80 °FPassing clouds.9 mph47%29.93 "Hg10 mi
2:54 PM79 °FPassing clouds.10 mph47%29.94 "Hg10 mi
1:54 PM79 °FPassing clouds.3 mph48%29.96 "Hg10 mi
12:54 PM77 °FPassing clouds.3 mph50%29.94 "Hg10 mi
11:54 AM75 °FPassing clouds.5 mph58%29.94 "Hg10 mi
10:54 AM72 °FPassing clouds.No wind64%29.95 "Hg10 mi
9:54 AM70 °FPassing clouds.7 mph66%29.95 "Hg10 mi
8:54 AM66 °FPassing clouds.8 mph78%29.94 "Hg10 mi
7:54 AM63 °FScattered clouds.5 mph84%29.92 "Hg10 mi
6:54 AM62 °FPassing clouds.5 mph86%29.90 "Hg10 mi
5:54 AM62 °FPassing clouds.3 mph86%29.88 "Hg10 mi
4:54 AM64 °FPassing clouds.No wind81%29.88 "Hg10 mi
3:54 AM65 °FPassing clouds.No wind78%29.85 "Hg10 mi
2:54 AM67 °FPassing clouds.16 mph81%29.88 "Hg10 mi
1:54 AM66 °FPassing clouds.3 mph87%29.88 "Hg10 mi
12:54 AM66 °FPassing clouds.3 mph87%29.88 "Hg10 mi
Weather by CustomWeather, © 2014

See weather overviewHow to use our weather pages